CW6318 Weather Reports


Display with metric or nautical units.
time (UTC)temp
F
wind
direction
speed
MPH
gust
MPH
rain 1hr
in
rain 24hr
in
rain mn
in
humidity
%
barometer
mb
20260903015500 52 241 1.0 4.0 0.06 0.43 0.43 60 992.5
20260903015002 52 232 1.0 5.0 0.07 0.43 0.43 60 992.5
20260903014500 53 265 0.0 5.0 0.06 0.42 0.42 59 992.4
20260903014001 53 356 1.0 4.0 0.06 0.41 0.41 59 992.3
20260903013500 53 244 0.0 4.0 0.06 0.41 0.41 59 992.2
20260903013000 53 238 0.0 4.0 0.05 0.40 0.40 58 992.2
20260903012500 54 225 0.0 4.0 0.06 0.40 0.40 57 992.1
20260903011959 54 247 1.0 2.0 0.05 0.39 0.39 56 992.0
20260903011000 54 229 0.0 0.0 0.06 0.38 0.38 56 991.6
20260903010500 54 229 0.0 0.0 0.06 0.38 0.38 57 991.6
20260903010002 54 230 0.0 0.0 0.05 0.37 0.37 57 991.7
20260903005000 54 230 0.0 0.0 0.06 0.36 0.36 57 991.8
20260903004459 54 230 0.0 0.0 0.06 0.36 0.36 58 991.7
20260903003959 54 230 0.0 0.0 0.06 0.35 0.35 58 991.7
20260903003459 54 229 0.0 0.0 0.06 0.35 0.35 58 991.7
20260903002959 54 230 0.0 0.0 0.07 0.35 0.35 58 991.7
20260903002459 54 229 0.0 0.0 0.07 0.34 0.34 58 991.6
20260903001459 54 230 0.0 0.0 0.07 0.33 0.33 58 991.7
20260903000959 54 229 0.0 0.0 0.06 0.32 0.32 58 991.6
20260903000500 54 230 0.0 0.0 0.07 0.32 0.32 59 991.7
20260903000000 54 229 0.0 0.0 0.06 0.31 0.31 59 991.6
20260902233501 55 230 0.0 0.0 0.06 0.29 0.29 59 991.5
20260902232959 55 230 0.0 0.0 0.05 0.28 0.28 59 991.5
20260902232500 55 230 0.0 0.0 0.05 0.27 0.27 59 991.5
20260902232001 55 230 0.0 0.0 0.05 0.27 0.27 60 991.5
20260902231500 55 230 0.0 0.0 0.04 0.26 0.26 60 991.5
20260902230500 55 230 0.0 0.0 0.04 0.25 0.25 60 991.4
20260902225500 55 230 0.0 0.0 0.04 0.25 0.25 60 991.5
20260902225002 55 229 0.0 0.0 0.04 0.24 0.24 61 991.5
20260902224459 55 230 0.0 0.0 0.04 0.24 0.24 61 991.5
20260902223959 55 230 0.0 0.0 0.03 0.23 0.23 61 991.4
20260902223459 55 230 0.0 0.0 0.04 0.23 0.23 61 991.4
20260902223000 55 230 0.0 1.0 0.04 0.23 0.23 61 991.5
20260902222500 55 230 0.0 0.0 0.04 0.22 0.22 61 991.6
20260902221959 55 230 0.0 0.0 0.04 0.22 0.22 62 991.6
20260902221500 56 230 0.0 0.0 0.05 0.22 0.22 63 991.5
20260902220459 56 229 0.0 0.0 0.05 0.21 0.21 63 991.4
20260902220002 56 230 0.0 0.0 0.05 0.21 0.21 64 991.5
20260902215459 56 230 0.0 0.0 0.06 0.21 0.21 65 991.4
20260902214959 56 229 0.0 0.0 0.06 0.20 0.20 66 991.3
20260902214500 56 229 0.0 1.0 0.06 0.20 0.20 67 991.3
20260902214001 56 229 0.0 1.0 0.07 0.20 0.20 67 991.4
20260902213000 57 229 0.0 0.0 0.07 0.19 0.19 68 991.4
20260902212500 57 230 0.0 1.0 0.07 0.18 0.18 68 991.3
20260902212000 57 230 0.0 1.0 0.07 0.18 0.18 68 991.3
20260902211501 57 230 0.0 0.0 0.07 0.17 0.17 68 991.3
20260902211000 57 230 0.0 0.0 0.07 0.17 0.17 68 991.3
20260902210000 57 229 0.0 0.0 0.07 0.16 0.16 68 991.2
20260902205500 57 229 0.0 0.0 0.07 0.15 0.15 69 991.2
20260902204959 57 229 0.0 0.0 0.06 0.14 0.14 69 991.1
20260902204459 57 229 0.0 0.0 0.07 0.14 0.14 69 991.1
20260902204000 58 229 0.0 0.0 0.07 0.13 0.13 70 991.1
20260902203501 58 230 0.0 0.0 0.07 0.13 0.13 70 991.1
20260902203001 58 230 0.0 0.0 0.06 0.12 0.12 70 991.0
20260902201502 58 230 0.0 1.0 0.05 0.10 0.10 71 990.9
20260902200501 58 231 0.0 1.0 0.05 0.09 0.09 72 991.0
20260902200002 59 237 0.0 1.0 0.05 0.09 0.09 73 991.1
20260902195459 59 240 0.0 0.0 0.05 0.08 0.08 73 991.2
20260902195000 59 240 0.0 0.0 0.05 0.08 0.08 73 991.3
20260902194500 59 240 0.0 0.0 0.05 0.07 0.07 74 991.3
20260902193959 59 240 0.0 0.0 0.04 0.06 0.06 74 991.5
20260902193459 59 240 0.0 0.0 0.05 0.06 0.06 74 991.6
20260902192459 60 240 0.0 0.0 0.04 0.05 0.05 74 991.8
20260902191958 60 240 0.0 0.0 0.05 0.05 0.05 74 991.7
20260902191459 60 240 0.0 0.0 0.05 0.05 0.05 74 991.8
20260902190959 60 240 0.0 0.0 0.05 0.05 0.05 74 991.9
20260902190002 61 240 0.0 0.0 0.04 0.04 0.04 74 992.0
20260902185500 61 240 0.0 0.0 0.03 0.03 0.03 74 992.0
20260902185000 61 240 0.0 0.0 0.03 0.03 0.03 74 991.9
20260902184500 61 240 0.0 0.0 0.02 0.02 0.02 74 991.9
20260902183959 61 240 0.0 0.0 0.02 0.02 0.02 74 991.8
20260902183501 61 240 0.0 0.0 0.01 0.01 0.01 74 991.7
20260902183000 62 240 0.0 0.0 0.01 0.01 0.01 75 991.6
20260902182500 62 240 0.0 0.0 0.01 0.01 0.01 75 991.6
20260902182000 62 240 0.0 0.0 0.00 0.00 0.00 74 991.6
20260902181500 62 240 0.0 0.0 0.00 0.00 0.00 75 991.6
20260902181000 62 240 0.0 0.0 0.00 0.00 0.00 75 991.5
20260902180459 62 240 0.0 0.0 0.00 0.00 0.00 76 991.4
20260902180005 62 240 0.0 0.0 0.00 0.00 0.00 76 991.4
20260902175459 62 240 0.0 0.0 0.00 0.00 0.00 76 991.4
20260902175000 62 240 0.0 0.0 0.00 0.00 0.00 76 991.5
20260902174500 62 240 0.0 0.0 0.00 0.00 0.00 76 991.4
20260902174001 62 240 0.0 0.0 0.00 0.00 0.00 75 991.3
20260902173500 62 240 0.0 0.0 0.00 0.00 0.00 73 991.3
20260902172959 62 240 0.0 0.0 0.00 0.00 0.00 73 991.3
20260902172459 62 240 0.0 0.0 0.00 0.00 0.00 75 991.2
20260902172001 62 240 0.0 0.0 0.00 0.00 0.00 74 991.2
20260902171500 62 240 0.0 0.0 0.00 0.00 0.00 75 991.2
20260902171001 62 240 0.0 0.0 0.00 0.00 0.00 74 991.1
20260902170501 62 240 0.0 0.0 0.00 0.00 0.00 74 991.2
20260902170000 62 240 0.0 0.0 0.00 0.00 0.00 74 991.4
20260902165501 62 240 0.0 0.0 0.00 0.00 0.00 74 991.3
20260902165000 62 240 0.0 0.0 0.00 0.00 0.00 74 991.3
20260902163959 61 240 0.0 0.0 0.00 0.00 0.00 74 991.3
20260902163458 61 240 0.0 0.0 0.00 0.00 0.00 75 991.3
20260902162959 60 240 0.0 0.0 0.00 0.00 0.00 75 991.4
20260902162458 60 240 0.0 0.0 0.00 0.00 0.00 76 991.4
20260902161959 59 240 0.0 0.0 0.00 0.00 0.00 76 991.5
20260902161500 59 240 0.0 0.0 0.00 0.00 0.00 77 991.5
20260902160002 57 240 0.0 0.0 0.00 0.00 0.00 75 991.8
20260902155000 56 240 0.0 0.0 0.00 0.00 0.00 73 991.9
20260902154500 56 240 0.0 0.0 0.00 0.00 0.00 72 992.0
20260902154000 56 240 0.0 0.0 0.00 0.00 0.00 72 992.1
20260902153500 55 240 0.0 0.0 0.00 0.00 0.00 72 992.1
20260902152959 55 240 0.0 0.0 0.00 0.00 0.00 71 992.3
20260902152500 55 240 0.0 0.0 0.00 0.00 0.00 71 992.4
20260902151959 55 240 0.0 0.0 0.00 0.00 0.00 71 992.5
20260902151500 54 240 0.0 0.0 0.00 0.00 0.00 71 992.5
20260902150500 54 240 0.0 0.0 0.00 0.00 0.00 71 992.5
20260902145500 54 240 0.0 0.0 0.00 0.00 0.00 71 992.7
20260902145000 54 240 0.0 0.0 0.00 0.00 0.00 71 992.7
20260902144000 54 240 0.0 0.0 0.00 0.00 0.00 72 992.8
20260902143500 54 240 0.0 0.0 0.00 0.00 0.00 72 992.9
20260902143000 54 240 0.0 0.0 0.00 0.00 0.00 72 993.0
20260902142459 54 240 0.0 0.0 0.00 0.00 0.00 72 993.0
20260902142000 54 240 0.0 0.0 0.00 0.00 0.00 72 993.1
20260902141500 54 240 0.0 0.0 0.00 0.00 0.00 72 993.1
20260902140500 54 240 0.0 0.0 0.00 0.00 0.00 73 993.3
20260902140002 54 240 0.0 0.0 0.00 0.00 0.00 73 993.3
20260902135500 54 240 0.0 0.0 0.00 0.00 0.00 73 993.5
20260902135001 54 240 0.0 0.0 0.00 0.00 0.00 73 993.5
20260902134501 54 240 0.0 0.0 0.00 0.00 0.00 73 993.6
20260902134000 54 240 0.0 0.0 0.00 0.00 0.00 73 993.5
20260902133001 54 240 0.0 0.0 0.00 0.00 0.00 73 993.6
20260902132501 54 240 0.0 0.0 0.00 0.00 0.00 73 993.6
20260902131959 54 240 0.0 0.0 0.00 0.00 0.00 74 993.7
20260902131501 54 240 0.0 0.0 0.00 0.00 0.00 74 993.8
20260902130500 54 240 0.0 0.0 0.00 0.00 0.00 74 993.9
20260902130002 54 240 0.0 0.0 0.00 0.00 0.00 74 994.0
20260902125459 54 240 0.0 0.0 0.00 0.00 0.00 74 994.1
20260902125000 54 240 0.0 0.0 0.00 0.00 0.00 74 994.1
20260902124459 54 240 0.0 0.0 0.00 0.00 0.00 74 994.2
20260902124000 54 240 0.0 0.0 0.00 0.00 0.00 74 994.1
20260902123500 54 240 0.0 0.0 0.00 0.00 0.00 75 994.1
20260902123000 54 240 0.0 0.0 0.00 0.00 0.00 75 994.1
20260902122500 54 240 0.0 0.0 0.00 0.00 0.00 75 994.1
20260902121000 54 240 0.0 0.0 0.00 0.00 0.00 76 994.2
20260902120500 54 240 0.0 0.0 0.00 0.00 0.00 76 994.4
20260902120002 54 240 0.0 0.0 0.00 0.00 0.00 76 994.4
20260902115500 55 240 0.0 0.0 0.00 0.00 0.00 76 994.4
20260902115001 55 240 0.0 0.0 0.00 0.00 0.00 76 994.4
20260902114501 55 240 0.0 0.0 0.00 0.00 0.00 76 994.4
20260902114003 55 240 0.0 0.0 0.00 0.00 0.00 76 994.5
20260902113000 55 240 0.0 0.0 0.00 0.00 0.00 76 994.5
20260902112000 55 240 0.0 0.0 0.00 0.00 0.00 76 994.5
20260902110500 56 240 0.0 0.0 0.00 0.00 0.00 76 994.6
20260902110003 56 240 0.0 0.0 0.00 0.00 0.00 77 994.6
20260902105001 56 240 0.0 0.0 0.00 0.00 0.00 76 994.7
20260902104459 56 240 0.0 0.0 0.00 0.00 0.00 76 994.8
20260902103959 56 240 0.0 0.0 0.00 0.00 0.00 76 994.8
20260902103001 57 240 0.0 0.0 0.00 0.00 0.00 76 995.0
20260902102502 57 240 0.0 0.0 0.00 0.00 0.00 76 995.0
20260902101500 57 240 0.0 0.0 0.00 0.00 0.00 76 995.1
20260902100958 57 240 0.0 0.0 0.00 0.00 0.00 76 995.1
20260902100459 57 240 0.0 0.0 0.00 0.00 0.00 76 995.3
20260902100000 57 240 0.0 0.0 0.00 0.00 0.00 76 995.2
20260902095459 57 240 0.0 0.0 0.00 0.00 0.00 76 995.3
20260902095001 57 240 0.0 0.0 0.00 0.00 0.00 76 995.3
20260902094500 57 240 0.0 0.0 0.00 0.00 0.00 76 995.3
20260902094000 57 240 0.0 0.0 0.00 0.00 0.00 76 995.3
20260902093500 57 240 0.0 0.0 0.00 0.00 0.00 76 995.3
20260902093001 57 240 0.0 0.0 0.00 0.00 0.00 76 995.3
20260902092501 57 240 0.0 0.0 0.00 0.00 0.00 76 995.4
20260902092001 57 240 0.0 0.0 0.00 0.00 0.00 76 995.4
20260902090959 57 240 0.0 0.0 0.00 0.00 0.00 76 995.4
20260902090501 57 240 0.0 1.0 0.00 0.00 0.00 76 995.4
20260902090000 57 240 0.0 1.0 0.00 0.00 0.00 76 995.4
20260902085501 57 239 0.0 0.0 0.00 0.00 0.00 76 995.5
20260902084959 57 239 0.0 0.0 0.00 0.00 0.00 76 995.5
20260902084001 57 238 0.0 0.0 0.00 0.00 0.00 77 995.5
20260902083501 57 238 0.0 0.0 0.00 0.00 0.00 77 995.7
20260902083001 57 238 0.0 0.0 0.00 0.00 0.00 77 995.5
20260902082000 57 239 0.0 0.0 0.00 0.00 0.00 77 995.5
20260902081500 58 239 0.0 0.0 0.00 0.00 0.00 77 995.6
20260902081001 58 239 0.0 0.0 0.00 0.00 0.00 76 995.6
20260902080459 58 238 0.0 0.0 0.00 0.00 0.00 76 995.5
20260902080000 58 238 0.0 0.0 0.00 0.00 0.00 76 995.4
20260902075500 58 238 0.0 0.0 0.00 0.00 0.00 76 995.6
20260902074959 58 238 0.0 0.0 0.00 0.00 0.00 77 995.6
20260902074458 58 238 0.0 0.0 0.00 0.00 0.00 76 995.7
20260902074000 58 239 0.0 0.0 0.00 0.00 0.00 76 995.7
20260902073500 58 238 0.0 0.0 0.00 0.00 0.00 76 995.7
20260902073001 58 238 0.0 0.0 0.00 0.00 0.00 76 995.7
20260902072459 58 238 0.0 0.0 0.00 0.00 0.00 76 995.7
20260902072001 58 238 0.0 0.0 0.00 0.00 0.00 76 995.7
20260902071500 58 239 0.0 0.0 0.00 0.00 0.00 76 995.7
20260902071000 58 238 0.0 0.0 0.00 0.00 0.00 76 995.8
20260902070500 59 238 0.0 0.0 0.00 0.00 0.00 76 996.0
20260902070002 59 238 0.0 0.0 0.00 0.00 0.00 76 996.0
20260902065005 59 238 0.0 0.0 0.00 0.00 0.00 76 996.1
20260902064501 59 238 0.0 0.0 0.00 0.00 0.00 76 996.2
20260902063959 59 238 0.0 0.0 0.00 0.00 0.00 76 996.2
20260902063500 59 239 0.0 0.0 0.00 0.00 0.00 76 996.3
20260902062459 59 238 0.0 2.0 0.00 0.00 0.00 76 996.3
20260902061959 59 238 0.0 2.0 0.00 0.00 0.00 76 996.4
20260902061500 59 238 0.0 1.0 0.00 0.00 0.00 76 996.3
20260902060500 59 239 0.0 1.0 0.00 0.00 0.00 76 996.3
20260902060003 59 239 0.0 3.0 0.00 0.00 0.00 76 996.3
20260902054500 59 259 0.0 3.0 0.00 0.00 0.00 76 996.4
20260902054001 59 245 1.0 3.0 0.00 0.00 0.00 76 996.5
20260902053500 59 255 1.0 2.0 0.00 0.00 0.00 76 996.5
20260902053000 59 243 0.0 1.0 0.00 0.00 0.00 76 996.5
20260902052459 59 243 0.0 5.0 0.00 0.00 0.00 76 996.5
20260902052000 59 243 0.0 5.0 0.00 0.00 0.00 76 996.4
20260902051458 59 250 0.0 5.0 0.00 0.00 0.00 76 996.3
20260902051001 59 252 0.0 5.0 0.00 0.00 0.00 76 996.2
20260902050501 59 241 0.0 2.0 0.00 0.00 0.00 76 996.3
20260902050004 60 241 0.0 6.0 0.00 0.00 0.00 76 996.3
20260902045000 60 252 0.0 3.0 0.00 0.00 0.00 76 996.2
20260902044507 60 225 0.0 3.0 0.00 0.00 0.00 76 996.1
20260902044001 60 246 0.0 5.0 0.00 0.00 0.00 75 996.1
20260902043501 60 252 2.0 4.0 0.00 0.00 0.00 75 996.0
20260902043002 60 235 0.0 4.0 0.00 0.00 0.00 75 996.1
20260902042501 60 244 0.0 4.0 0.00 0.00 0.00 75 996.1
20260902042002 60 243 0.0 4.0 0.00 0.00 0.00 75 996.1
20260902041001 60 245 0.0 3.0 0.00 0.00 0.00 75 996.1
20260902040500 60 244 0.0 3.0 0.00 0.00 0.00 75 996.0
20260902040002 61 260 1.0 1.0 0.00 0.00 0.00 75 996.0
20260902035459 61 285 0.0 1.0 0.00 0.00 0.00 74 996.0
20260902034500 61 287 0.0 2.0 0.00 0.00 0.00 74 995.9
20260902034000 61 246 0.0 4.0 0.00 0.00 0.00 74 995.8
20260902033459 61 246 1.0 4.0 0.00 0.00 0.00 74 995.8
20260902033000 61 292 0.0 2.0 0.00 0.00 0.00 74 995.7
20260902032500 61 237 0.0 0.0 0.00 0.00 0.00 74 995.7
20260902031959 61 236 0.0 0.0 0.00 0.00 0.00 73 995.6
20260902031459 61 237 0.0 0.0 0.00 0.00 0.00 73 995.5
20260902031000 61 237 0.0 3.0 0.00 0.00 0.00 73 995.5
20260902030500 61 237 0.0 3.0 0.00 0.00 0.00 73 995.6
20260902025959 61 269 0.0 1.0 0.00 0.00 0.00 73 995.7
20260902025001 62 269 0.0 0.0 0.00 0.00 0.00 73 995.7
20260902024459 62 268 0.0 0.0 0.00 0.00 0.00 73 995.8
20260902024001 62 269 0.0 3.0 0.00 0.00 0.00 72 995.8
20260902023501 62 269 0.0 3.0 0.00 0.00 0.00 72 995.7
20260902023000 62 269 0.0 0.0 0.00 0.00 0.00 72 995.7
20260902022501 62 269 0.0 0.0 0.00 0.00 0.00 72 995.7
20260902022001 62 269 0.0 0.0 0.00 0.00 0.00 72 995.7
20260902021001 63 269 0.0 0.0 0.00 0.00 0.00 71 995.7
20260902020501 63 269 0.0 0.0 0.00 0.00 0.00 71 995.7